| time (UTC) | temp F | wind direction | speed knots | gust knots | rain 1hr in | rain 24hr in | rain mn in | humidity % | barometer mb |
| 20260506124545 | 53 | 281 | 0.0 | 0.0 | 0.00 | 0.00 | 0.00 | 84 | 1018.8 |
| 20260506123045 | 54 | 274 | 0.0 | 0.9 | 0.00 | 0.00 | 0.00 | 84 | 1018.5 |
| 20260506121540 | 54 | 272 | 0.0 | 0.0 | 0.00 | 0.00 | 0.00 | 84 | 1018.5 |
| 20260506120037 | 54 | 296 | 0.0 | 0.9 | 0.00 | 0.00 | 0.00 | 84 | 1018.5 |
| 20260506114542 | 55 | 253 | 0.0 | 0.9 | 0.00 | 0.00 | 0.00 | 84 | 1018.5 |
| 20260506113035 | 55 | 294 | 0.0 | 0.9 | 0.00 | 0.00 | 0.00 | 83 | 1018.4 |
| 20260506111528 | 55 | 304 | 0.0 | 0.9 | 0.00 | 0.00 | 0.00 | 83 | 1018.3 |
| 20260506110026 | 55 | 292 | 0.0 | 0.9 | 0.00 | 0.00 | 0.00 | 82 | 1018.2 |
| 20260506104522 | 55 | 285 | 0.0 | 2.6 | 0.00 | 0.00 | 0.00 | 82 | 1018.1 |
| 20260506103025 | 56 | 31 | 0.0 | 1.7 | 0.00 | 0.00 | 0.00 | 81 | 1018.1 |
| 20260506101516 | 56 | 327 | 0.0 | 0.9 | 0.00 | 0.00 | 0.00 | 81 | 1018.0 |
| 20260506100021 | 56 | 326 | 0.0 | 0.9 | 0.00 | 0.00 | 0.00 | 80 | 1017.9 |
| 20260506094515 | 56 | 288 | 0.0 | 0.9 | 0.00 | 0.00 | 0.00 | 80 | 1017.8 |
| 20260506093008 | 57 | 287 | 0.0 | 0.9 | 0.00 | 0.00 | 0.00 | 79 | 1017.6 |
| 20260506091505 | 57 | 269 | 0.0 | 0.9 | 0.00 | 0.00 | 0.00 | 79 | 1017.6 |
| 20260506090005 | 57 | 282 | 0.0 | 1.7 | 0.00 | 0.00 | 0.00 | 78 | 1017.7 |
| 20260506084606 | 57 | 259 | 0.0 | 0.9 | 0.00 | 0.00 | 0.00 | 77 | 1017.9 |
| 20260506083115 | 57 | 281 | 0.0 | 1.7 | 0.00 | 0.00 | 0.00 | 77 | 1017.9 |
| 20260506081554 | 58 | 34 | 0.9 | 2.6 | 0.00 | 0.00 | 0.00 | 76 | 1017.9 |
| 20260506073043 | 59 | 328 | 0.0 | 2.6 | 0.00 | 0.00 | 0.00 | 75 | 1017.6 |
| 20260506071540 | 59 | 314 | 0.9 | 3.5 | 0.00 | 0.00 | 0.00 | 74 | 1017.3 |
| 20260506061534 | 60 | 319 | 0.0 | 2.6 | 0.00 | 0.00 | 0.00 | 73 | 1016.7 |
| 20260506044517 | 62 | 276 | 0.0 | 3.5 | 0.00 | 0.00 | 0.00 | 69 | 1016.0 |
| 20260506043013 | 63 | 285 | 0.0 | 2.6 | 0.00 | 0.00 | 0.00 | 68 | 1015.8 |
| 20260506041507 | 63 | 313 | 0.0 | 0.9 | 0.00 | 0.00 | 0.00 | 67 | 1015.7 |
| 20260506040005 | 63 | 274 | 0.0 | 1.7 | 0.00 | 0.00 | 0.00 | 66 | 1015.4 |
| 20260506034506 | 64 | 9 | 0.0 | 2.6 | 0.00 | 0.00 | 0.00 | 65 | 1015.5 |
| 20260506033101 | 64 | 350 | 0.0 | 5.2 | 0.00 | 0.00 | 0.00 | 65 | 1015.1 |
| 20260506031601 | 65 | 252 | 0.0 | 5.2 | 0.00 | 0.00 | 0.00 | 64 | 1015.0 |
| 20260506030055 | 66 | 340 | 3.5 | 6.1 | 0.00 | 0.00 | 0.00 | 62 | 1014.6 |
| 20260506024600 | 66 | 342 | 3.5 | 10.4 | 0.00 | 0.00 | 0.00 | 60 | 1014.6 |
| 20260506023052 | 67 | 4 | 1.7 | 5.2 | 0.00 | 0.00 | 0.00 | 58 | 1014.4 |
| 20260506021548 | 68 | 13 | 0.9 | 6.1 | 0.00 | 0.00 | 0.00 | 57 | 1014.2 |
| 20260506020057 | 67 | 309 | 2.6 | 7.8 | 0.00 | 0.00 | 0.00 | 57 | 1014.0 |
| 20260506014544 | 67 | 303 | 0.9 | 7.0 | 0.00 | 0.00 | 0.00 | 57 | 1014.1 |
| 20260506013041 | 68 | 7 | 1.7 | 5.2 | 0.00 | 0.00 | 0.00 | 56 | 1014.0 |
| 20260506011601 | 68 | 329 | 2.6 | 5.2 | 0.00 | 0.00 | 0.00 | 54 | 1014.1 |
| 20260506010038 | 69 | 311 | 3.5 | 7.8 | 0.00 | 0.00 | 0.00 | 53 | 1014.0 |
| 20260506004549 | 70 | 274 | 1.7 | 5.2 | 0.00 | 0.00 | 0.00 | 53 | 1014.2 |
| 20260506003034 | 70 | 22 | 0.9 | 5.2 | 0.00 | 0.00 | 0.00 | 53 | 1014.1 |
| 20260506001530 | 69 | 323 | 2.6 | 7.0 | 0.00 | 0.00 | 0.00 | 55 | 1014.3 |
| 20260506000127 | 69 | 215 | 0.0 | 4.3 | 0.00 | 0.00 | 0.00 | 54 | 1014.0 |
| 20260505234538 | 70 | 249 | 1.7 | 7.8 | 0.00 | 0.00 | 0.00 | 52 | 1014.1 |
| 20260505233024 | 70 | 291 | 0.9 | 7.8 | 0.00 | 0.00 | 0.00 | 53 | 1014.1 |
| 20260505231521 | 69 | 54 | 1.7 | 9.6 | 0.00 | 0.00 | 0.00 | 52 | 1014.2 |
| 20260505230042 | 70 | 279 | 1.7 | 7.0 | 0.00 | 0.00 | 0.00 | 51 | 1014.1 |
| 20260505224525 | 70 | 270 | 1.7 | 7.8 | 0.00 | 0.00 | 0.00 | 52 | 1014.3 |
| 20260505223016 | 69 | 264 | 1.7 | 7.8 | 0.00 | 0.00 | 0.00 | 54 | 1014.4 |
| 20260505221510 | 69 | 238 | 3.5 | 11.3 | 0.00 | 0.00 | 0.00 | 54 | 1014.5 |
| 20260505220008 | 68 | 233 | 5.2 | 13.9 | 0.00 | 0.00 | 0.00 | 54 | 1014.3 |
| 20260505214511 | 68 | 326 | 0.9 | 7.0 | 0.00 | 0.00 | 0.00 | 53 | 1014.7 |
| 20260505213005 | 69 | 284 | 2.6 | 5.2 | 0.00 | 0.00 | 0.00 | 50 | 1014.4 |
| 20260505211503 | 69 | 336 | 2.6 | 7.8 | 0.00 | 0.00 | 0.00 | 50 | 1014.6 |
| 20260505210057 | 68 | 266 | 6.1 | 11.3 | 0.00 | 0.00 | 0.00 | 51 | 1014.7 |
| 20260505204600 | 68 | 273 | 2.6 | 9.6 | 0.00 | 0.00 | 0.00 | 51 | 1014.5 |
| 20260505203101 | 68 | 338 | 2.6 | 7.0 | 0.00 | 0.00 | 0.00 | 52 | 1014.7 |
| 20260505201550 | 68 | 130 | 0.9 | 10.4 | 0.00 | 0.00 | 0.00 | 55 | 1014.7 |
| 20260505200047 | 66 | 195 | 2.6 | 8.7 | 0.00 | 0.00 | 0.00 | 53 | 1014.8 |
| 20260505194558 | 66 | 286 | 3.5 | 9.6 | 0.00 | 0.00 | 0.00 | 57 | 1014.9 |
| 20260505193039 | 66 | 302 | 4.3 | 8.7 | 0.00 | 0.00 | 0.00 | 57 | 1015.1 |
| 20260505191549 | 65 | 274 | 2.6 | 9.6 | 0.00 | 0.00 | 0.00 | 57 | 1015.0 |
| 20260505190040 | 65 | 290 | 1.7 | 5.2 | 0.00 | 0.00 | 0.00 | 59 | 1015.1 |
| 20260505184533 | 64 | 266 | 2.6 | 7.8 | 0.00 | 0.00 | 0.00 | 62 | 1015.3 |
| 20260505183025 | 64 | 300 | 2.6 | 7.0 | 0.00 | 0.00 | 0.00 | 62 | 1015.3 |
| 20260505181521 | 63 | 288 | 3.5 | 8.7 | 0.00 | 0.00 | 0.00 | 62 | 1015.4 |
| 20260505180018 | 62 | 354 | 1.7 | 10.4 | 0.00 | 0.00 | 0.00 | 61 | 1015.2 |
| 20260505174512 | 62 | 342 | 0.9 | 7.8 | 0.00 | 0.00 | 0.00 | 63 | 1015.0 |
| 20260505173007 | 60 | 328 | 2.6 | 6.1 | 0.00 | 0.00 | 0.00 | 65 | 1014.8 |
| 20260505170055 | 58 | 263 | 0.0 | 5.2 | 0.00 | 0.00 | 0.00 | 71 | 1014.9 |
| 20260505164601 | 58 | 233 | 0.0 | 1.7 | 0.00 | 0.00 | 0.00 | 72 | 1014.8 |
| 20260505163050 | 57 | 304 | 0.9 | 4.3 | 0.00 | 0.00 | 0.00 | 73 | 1014.7 |
| 20260505161553 | 56 | 353 | 2.6 | 6.1 | 0.00 | 0.00 | 0.00 | 73 | 1014.5 |
| 20260505153042 | 55 | 282 | 0.9 | 2.6 | 0.00 | 0.00 | 0.00 | 76 | 1014.6 |
| 20260505151538 | 55 | 306 | 0.0 | 4.3 | 0.00 | 0.00 | 0.00 | 77 | 1014.5 |